Location: Famechon
(49.7599°N, 2.0615°E)
Time: 06:03:17
(UTC+00:00)

Cosmos 1328 - Pass Details

Date: 03 February 2023
Orbit: 518 x 543 km, 82.5° (Epoch: 30 March)

Event Time Altitude Azimuth Distance (km) Brightness Sun altitude
Rises 17:45:44 0° 187° (S) 2,700 7.6 -9.4°
Reaches altitude 10° 17:47:53 10° 186° (S) 1,809 6.7 -9.7°
Maximum altitude 17:51:52 85° 98° (E) 551 3.7 -10.3°
Drops below altitude 10° 17:55:51 10° 11° (N) 1,808 6.2 -10.9°
Sets 17:58:00 0° 11° (N) 2,700 7.1 -11.3°
